Location: Heilbronn
(49.1548°N, 9.2780°E)
Time: 04:15:50
(UTC+01:00)

OTV 5 (USA 277) - Visible Passes

Search period start: 22 February 2018 00:00
Search period end: 04 March 2018 00:00
Orbit: 404 x 417 km, 43.0° (Epoch: 07 September)

Date Brightness Start Highest point End Pass type
(mag) Time Alt. Az. Time Alt. Az. Time Alt. Az.
22 Feb ? 06:42:58 10° SW 06:45:29 21° SSE 06:48:02 10° ESE visible
23 Feb ? 05:52:21 10° SSW 05:54:35 17° SSE 05:56:50 10° ESE visible
24 Feb ? 05:03:42 14° SSE 05:03:43 14° SSE 05:05:28 10° SE visible
24 Feb ? 06:37:34 10° SW 06:40:23 26° S 06:43:12 10° ESE visible
25 Feb ? 05:47:48 16° SSW 05:49:27 24° S 05:52:11 10° ESE visible
26 Feb ? 04:59:06 20° SSE 04:59:06 20° SSE 05:01:05 10° ESE visible
26 Feb ? 06:32:27 10° WSW 06:35:19 27° S 06:38:11 10° ESE visible
27 Feb ? 05:43:07 21° SW 05:44:23 27° S 05:47:15 10° ESE visible
28 Feb ? 04:54:23 23° SE 04:54:23 23° SE 04:56:15 10° ESE visible
28 Feb ? 06:27:32 10° WSW 06:30:14 24° S 06:32:57 10° SE visible
01 Mar ? 05:38:23 23° SW 05:39:18 26° S 05:42:07 10° SE visible
02 Mar ? 04:49:40 21° SE 04:49:40 21° SE 04:51:14 10° ESE visible
02 Mar ? 06:22:53 10° WSW 06:25:06 17° SSW 06:27:19 10° SSE visible
03 Mar ? 05:33:44 20° SSW 05:34:12 20° SSW 05:36:43 10° SE visible
